GW1267 Weather Reports


time (UTC)temp
C
wind
direction
speed
KPH
gust
KPH
rain 1hr
cm
rain 24hr
cm
rain mn
cm
humidity
%
barometer
mb
20260506051053 15 0 0.0 0.0 0.00 0.00 0.00 72 1016.2
20260506050551 15 0 0.0 0.0 0.00 0.00 0.00 72 1016.2
20260506045051 15 0 0.0 0.0 0.00 0.00 0.00 72 1016.1
20260506044559 15 0 0.0 0.0 0.00 0.00 0.00 72 1016.0
20260506044049 15 0 0.0 0.0 0.00 0.00 0.00 72 1016.0
20260506043553 15 0 0.0 0.0 0.00 0.00 0.00 72 1016.0
20260506043053 15 0 0.0 0.0 0.00 0.00 0.00 72 1015.9
20260506042552 15 0 0.0 0.0 0.00 0.00 0.00 72 1015.9
20260506042052 15 0 0.0 0.0 0.00 0.00 0.00 72 1015.8
20260506041604 15 0 0.0 0.0 0.00 0.00 0.00 72 1015.8
20260506041052 15 0 0.0 0.0 0.00 0.00 0.00 72 1015.7
20260506040551 15 0 0.0 0.0 0.00 0.00 0.00 72 1015.7
20260506040054 15 0 0.0 0.0 0.00 0.00 0.00 72 1015.6
20260506035551 15 0 0.0 0.0 0.00 0.00 0.00 71 1015.6
20260506035049 15 0 0.0 0.0 0.00 0.00 0.00 72 1015.6
20260506034555 15 0 0.0 0.0 0.00 0.00 0.00 72 1015.5
20260506034050 15 0 0.0 0.0 0.00 0.00 0.00 72 1015.5
20260506033554 15 0 0.0 0.0 0.00 0.00 0.00 72 1015.4
20260506033054 15 0 0.0 0.0 0.00 0.00 0.00 72 1015.3
20260506032551 15 0 0.0 0.0 0.00 0.00 0.00 72 1015.3
20260506032053 15 0 0.0 0.0 0.00 0.00 0.00 72 1015.3
20260506031556 15 0 0.0 0.0 0.00 0.00 0.00 73 1015.1
20260506031054 15 0 0.0 0.0 0.00 0.00 0.00 73 1015.2
20260506030552 15 0 0.0 0.0 0.00 0.00 0.00 72 1015.1
20260506030052 15 0 0.0 0.0 0.00 0.00 0.00 72 1015.1
20260506025549 15 0 0.0 0.0 0.00 0.00 0.00 72 1015.0
20260506025048 16 0 0.0 0.0 0.00 0.00 0.00 72 1015.0
20260506024549 16 0 0.0 0.0 0.00 0.00 0.00 72 1015.0
20260506024048 16 0 0.0 0.0 0.00 0.00 0.00 72 1015.0
20260506023551 16 0 0.0 0.0 0.00 0.00 0.00 72 1015.1
20260506023057 16 0 0.0 0.0 0.00 0.00 0.00 71 1015.1
20260506022548 16 0 0.0 0.0 0.00 0.00 0.00 71 1015.0
20260506022048 16 0 0.0 0.0 0.00 0.00 0.00 71 1015.1
20260506021558 16 0 0.0 0.0 0.00 0.00 0.00 70 1015.0
20260506021050 16 0 0.0 0.0 0.00 0.00 0.00 70 1014.9
20260506020547 16 0 0.0 0.0 0.00 0.00 0.00 70 1015.0
20260506020057 16 0 0.0 0.0 0.00 0.00 0.00 70 1015.1
20260506015552 16 0 0.0 6.4 0.00 0.00 0.00 71 1015.0
20260506015047 16 0 0.0 6.4 0.00 0.00 0.00 71 1015.0
20260506014600 16 343 0.0 1.6 0.00 0.00 0.00 70 1015.0
20260506014046 16 0 0.0 0.0 0.00 0.00 0.00 71 1015.0
20260506013547 16 0 0.0 0.0 0.00 0.00 0.00 71 1015.0
20260506013053 16 0 0.0 0.0 0.00 0.00 0.00 71 1015.0
20260506012547 16 0 0.0 0.0 0.00 0.00 0.00 71 1015.0
20260506012048 16 0 0.0 0.0 0.00 0.00 0.00 71 1015.0
20260506011553 16 0 0.0 0.0 0.00 0.00 0.00 71 1015.1
20260506011047 16 0 0.0 0.0 0.00 0.00 0.00 71 1015.1
20260506010550 16 0 0.0 0.0 0.00 0.00 0.00 71 1015.0
20260506010055 16 0 0.0 0.0 0.00 0.00 0.00 71 1015.0
20260506005547 16 0 0.0 0.0 0.00 0.00 0.00 71 1015.0
20260506005048 16 0 0.0 0.0 0.00 0.00 0.00 71 1015.0
20260506004557 16 0 0.0 0.0 0.00 0.00 0.00 71 1015.1
20260506004047 16 0 0.0 0.0 0.00 0.00 0.00 72 1015.0
20260506003547 16 0 0.0 0.0 0.00 0.00 0.00 72 1015.0
20260506003054 16 0 0.0 0.0 0.00 0.00 0.00 71 1015.1
20260506002547 16 0 0.0 0.0 0.00 0.00 0.00 71 1015.0
20260506002048 16 0 0.0 4.8 0.00 0.00 0.00 71 1015.1
20260506001612 16 0 0.0 4.8 0.00 0.00 0.00 71 1015.1
20260506001048 16 0 0.0 4.8 0.00 0.00 0.00 71 1015.1
20260506000548 16 0 0.0 6.4 0.00 0.00 0.00 72 1015.1
20260506000106 15 0 0.0 8.0 0.00 0.00 0.00 71 1015.2
20260505235550 16 222 0.0 8.0 0.00 0.00 0.00 71 1015.2
20260505235048 16 0 0.0 8.0 0.00 0.00 0.00 71 1015.3
20260505234553 16 0 0.0 4.8 0.00 0.00 0.00 71 1015.3
20260505234049 16 0 0.0 8.0 0.00 0.00 0.00 71 1015.3
20260505233549 16 0 0.0 8.0 0.00 0.00 0.00 71 1015.4
20260505233056 16 254 1.6 8.0 0.00 0.00 0.00 71 1015.4
20260505232547 16 0 0.0 0.0 0.00 0.00 0.00 71 1015.3
20260505232047 16 0 0.0 0.0 0.00 0.00 0.00 71 1015.3
20260505231554 16 0 0.0 0.0 0.00 0.00 0.00 71 1015.4
20260505231050 16 0 0.0 0.0 0.00 0.00 0.00 70 1015.3
20260505230547 16 0 0.0 0.0 0.00 0.00 0.00 71 1015.4
20260505230110 16 0 0.0 0.0 0.00 0.00 0.00 71 1015.4
20260505225548 16 0 0.0 0.0 0.00 0.00 0.00 71 1015.4
20260505225051 16 0 0.0 0.0 0.00 0.00 0.00 71 1015.5
20260505224553 16 0 0.0 0.0 0.00 0.00 0.00 71 1015.5
20260505224049 16 0 0.0 0.0 0.00 0.00 0.00 71 1015.6
20260505223549 16 0 0.0 0.0 0.00 0.00 0.00 71 1015.5
20260505223100 16 0 0.0 3.2 0.00 0.00 0.00 71 1015.5
20260505222549 16 0 0.0 6.4 0.00 0.00 0.00 71 1015.6
20260505222047 16 0 1.6 6.4 0.00 0.00 0.00 71 1015.6
20260505221559 16 0 1.6 9.7 0.00 0.00 0.00 71 1015.7
20260505221049 16 0 0.0 9.7 0.00 0.00 0.00 71 1015.7
20260505220549 16 288 1.6 8.0 0.00 0.00 0.00 71 1015.7
20260505220100 15 0 0.0 9.7 0.00 0.00 0.00 72 1015.7
20260505215549 15 25 0.0 9.7 0.00 0.00 0.00 71 1015.7
20260505215049 16 0 1.6 9.7 0.00 0.00 0.00 71 1015.9
20260505214606 15 0 1.6 8.0 0.00 0.00 0.00 71 1015.8
20260505214049 15 351 1.6 8.0 0.00 0.00 0.00 71 1015.8
20260505213549 15 0 0.0 0.0 0.00 0.00 0.00 71 1015.8
20260505213100 15 0 0.0 0.0 0.00 0.00 0.00 71 1015.8
20260505212549 15 0 0.0 6.4 0.00 0.00 0.00 72 1015.9
20260505212049 15 0 0.0 11.3 0.00 0.00 0.00 72 1015.9
20260505211607 15 0 4.8 11.3 0.00 0.00 0.00 72 1015.9
20260505211050 15 251 0.0 8.0 0.00 0.00 0.00 72 1015.8
20260505210547 15 0 3.2 8.0 0.00 0.00 0.00 71 1015.9
20260505210106 15 0 0.0 6.4 0.00 0.00 0.00 72 1015.9
20260505205551 15 0 0.0 6.4 0.00 0.00 0.00 72 1015.9
20260505205047 15 0 0.0 9.7 0.00 0.00 0.00 72 1016.0
20260505204550 15 0 0.0 9.7 0.00 0.00 0.00 72 1015.9
20260505204049 15 334 4.8 8.0 0.00 0.00 0.00 71 1016.0
20260505203550 15 342 3.2 8.0 0.00 0.00 0.00 71 1016.0
20260505203054 15 0 0.0 0.0 0.00 0.00 0.00 72 1016.0
20260505202550 15 0 0.0 0.0 0.00 0.00 0.00 71 1016.0
20260505202054 15 0 0.0 0.0 0.00 0.00 0.00 72 1016.0
20260505201605 15 0 0.0 0.0 0.00 0.00 0.00 72 1016.0
20260505201047 15 0 0.0 0.0 0.00 0.00 0.00 72 1016.1
20260505200549 15 0 0.0 0.0 0.00 0.00 0.00 72 1016.2
20260505200051 15 0 0.0 8.0 0.00 0.00 0.00 72 1016.2
20260505195548 15 0 0.0 8.0 0.00 0.00 0.00 72 1016.2
20260505195054 15 360 0.0 8.0 0.00 0.00 0.00 72 1016.2
20260505194555 15 0 0.0 6.4 0.00 0.00 0.00 72 1016.1
20260505194048 15 0 0.0 6.4 0.00 0.00 0.00 72 1016.2
20260505193552 15 0 0.0 0.0 0.00 0.00 0.00 72 1016.1
20260505193051 15 0 0.0 0.0 0.00 0.00 0.00 72 1016.1
20260505192553 15 0 0.0 0.0 0.00 0.00 0.00 72 1016.1
20260505192049 14 0 0.0 0.0 0.00 0.00 0.00 72 1016.2
20260505191557 14 0 0.0 0.0 0.00 0.00 0.00 72 1016.3
20260505191050 14 0 0.0 0.0 0.00 0.00 0.00 72 1016.2
20260505190548 13 0 0.0 0.0 0.00 0.00 0.00 72 1016.2
20260505190111 13 0 0.0 0.0 0.00 0.00 0.00 72 1016.2
20260505185549 13 0 0.0 0.0 0.00 0.00 0.00 72 1016.3
20260505185049 13 0 0.0 0.0 0.00 0.00 0.00 72 1016.3
20260505184605 13 0 0.0 0.0 0.00 0.00 0.00 72 1016.2
20260505184050 13 0 0.0 0.0 0.00 0.00 0.00 72 1016.2
20260505183550 13 0 0.0 0.0 0.00 0.00 0.00 71 1016.2
20260505183055 13 0 0.0 0.0 0.00 0.00 0.00 72 1016.2
20260505182548 13 0 0.0 9.7 0.00 0.00 0.00 72 1016.3
20260505182052 13 0 0.0 9.7 0.00 0.00 0.00 72 1016.3
20260505181557 13 188 1.6 9.7 0.00 0.00 0.00 72 1016.1
20260505181052 13 0 0.0 6.4 0.00 0.00 0.00 71 1016.2
20260505180548 13 0 0.0 8.0 0.00 0.00 0.00 70 1016.2
20260505180055 12 0 1.6 9.7 0.00 0.00 0.00 70 1016.2
20260505175549 12 0 1.6 9.7 0.00 0.00 0.00 69 1016.2
20260505175049 12 192 0.0 9.7 0.00 0.00 0.00 69 1016.2
20260505174552 12 245 0.0 9.7 0.00 0.00 0.00 68 1016.2
20260505174049 12 203 1.6 9.7 0.00 0.00 0.00 68 1016.2
20260505173549 12 0 0.0 8.0 0.00 0.00 0.00 67 1016.1
20260505173053 12 0 0.0 8.0 0.00 0.00 0.00 65 1016.1
20260505172548 12 215 0.0 8.0 0.00 0.00 0.00 63 1016.1
20260505172048 12 0 0.0 6.4 0.00 0.00 0.00 62 1016.1
20260505171554 12 0 0.0 6.4 0.00 0.00 0.00 61 1016.1
20260505171051 12 190 0.0 6.4 0.00 0.00 0.00 59 1016.0
20260505170554 11 0 1.6 6.4 0.00 0.00 0.00 58 1016.1
20260505170059 11 0 0.0 6.4 0.00 0.00 0.00 57 1016.0
20260505165548 11 0 0.0 9.7 0.00 0.00 0.00 55 1016.0
20260505165048 11 0 0.0 9.7 0.00 0.00 0.00 52 1016.0
20260505164552 11 198 1.6 8.0 0.00 0.00 0.00 47 1015.9
20260505164048 11 0 0.0 0.0 0.00 0.00 0.00 46 1015.9
20260505163553 11 0 0.0 4.8 0.00 0.00 0.00 46 1015.9
20260505163059 11 0 0.0 6.4 0.00 0.00 0.00 45 1016.0
20260505162548 11 230 0.0 6.4 0.00 0.00 0.00 44 1015.9
20260505162048 11 0 0.0 9.7 0.00 0.00 0.00 43 1015.9
20260505161552 11 232 0.0 9.7 0.00 0.00 0.00 42 1015.8
20260505161050 11 0 3.2 9.7 0.00 0.00 0.00 43 1015.8
20260505160552 11 0 0.0 6.4 0.00 0.00 0.00 42 1015.9
20260505153107 11 0 0.0 4.8 0.00 0.00 0.00 42 1015.8
20260505152549 11 250 0.0 3.2 0.00 0.00 0.00 42 1015.7
20260505152050 11 0 0.0 0.0 0.00 0.00 0.00 42 1015.7
20260505151554 11 0 0.0 6.4 0.00 0.00 0.00 42 1015.7
20260505151048 11 0 0.0 6.4 0.00 0.00 0.00 43 1015.6
20260505150549 11 0 0.0 4.8 0.00 0.00 0.00 43 1015.6
20260505150111 11 0 0.0 4.8 0.00 0.00 0.00 43 1015.6
20260505140549 10 0 0.0 0.0 0.00 0.00 0.00 51 1015.1
20260505140117 10 0 0.0 0.0 0.00 0.00 0.00 51 1015.0
20260505130110 11 0 0.0 0.0 0.00 0.00 0.00 65 1014.7
20260505124611 11 0 0.0 0.0 0.00 0.00 0.00 65 1014.8
20260505124049 11 0 0.0 0.0 0.00 0.00 0.00 65 1014.7
20260505123548 11 0 0.0 3.2 0.00 0.00 0.00 65 1014.7
20260505123114 11 0 0.0 3.2 0.00 0.00 0.00 65 1014.7
20260505122548 11 0 0.0 0.0 0.00 0.00 0.00 65 1014.6
20260505122051 11 0 0.0 4.8 0.00 0.00 0.00 65 1014.7
20260505121556 11 0 0.0 4.8 0.00 0.00 0.00 65 1014.6
20260505121049 11 0 0.0 4.8 0.00 0.00 0.00 65 1014.6
20260505120549 11 0 0.0 6.4 0.00 0.00 0.00 65 1014.5
20260505120056 11 0 0.0 6.4 0.00 0.00 0.00 65 1014.6
20260505115549 11 303 0.0 6.4 0.00 0.00 0.00 65 1014.5
20260505115048 11 0 0.0 6.4 0.00 0.00 0.00 65 1014.5
20260505114602 11 0 0.0 6.4 0.00 0.00 0.00 65 1014.6
20260505114048 11 0 0.0 6.4 0.00 0.00 0.00 65 1014.5
20260505113552 11 0 0.0 0.0 0.00 0.00 0.00 64 1014.4
20260505113055 11 0 0.0 4.8 0.00 0.00 0.00 64 1014.5
20260505112548 11 0 0.0 8.0 0.00 0.00 0.00 64 1014.5
20260505112048 11 0 3.2 9.7 0.00 0.00 0.00 64 1014.4
20260505111600 11 249 1.6 12.9 0.00 0.00 0.00 64 1014.4
20260505111049 11 220 0.0 12.9 0.00 0.00 0.00 64 1014.4
20260505110549 11 217 6.4 12.9 0.00 0.00 0.00 64 1014.4
20260505102048 11 0 0.0 0.0 0.00 0.00 0.00 64 1014.2
20260505101555 11 0 0.0 0.0 0.00 0.00 0.00 64 1014.1
20260505101048 11 0 0.0 0.0 0.00 0.00 0.00 64 1014.0
20260505100551 11 0 0.0 9.7 0.00 0.00 0.00 64 1014.1
20260505100103 11 0 1.6 9.7 0.00 0.00 0.00 64 1014.1
20260505095550 11 0 0.0 6.4 0.00 0.00 0.00 64 1014.0
20260505095053 11 0 1.6 6.4 0.00 0.00 0.00 64 1014.1
20260505094604 11 0 0.0 4.8 0.00 0.00 0.00 65 1014.1
20260505094048 11 0 0.0 4.8 0.00 0.00 0.00 64 1014.0
20260505093551 11 0 0.0 4.8 0.00 0.00 0.00 65 1014.0
20260505093058 11 286 0.0 6.4 0.00 0.00 0.00 64 1013.8
20260505092552 11 0 1.6 8.0 0.00 0.00 0.00 64 1013.8
20260505092049 11 213 0.0 8.0 0.00 0.00 0.00 64 1013.8
20260505091559 11 213 3.2 11.3 0.00 0.00 0.00 64 1013.8
20260505091048 11 207 4.8 11.3 0.00 0.00 0.00 64 1013.7
20260505090548 11 286 1.6 11.3 0.00 0.00 0.00 64 1013.8
20260505090111 11 242 0.0 11.3 0.00 0.00 0.00 64 1013.7
20260505085548 11 0 4.8 11.3 0.00 0.00 0.00 64 1013.8
20260505085051 11 211 4.8 12.9 0.00 0.00 0.00 64 1013.7
20260505084554 11 207 4.8 12.9 0.00 0.00 0.00 65 1013.7
20260505084048 11 195 4.8 11.3 0.00 0.00 0.00 65 1013.6
20260505083548 11 223 3.2 11.3 0.00 0.00 0.00 65 1013.6
20260505083108 11 219 6.4 11.3 0.00 0.00 0.00 65 1013.6
20260505082549 11 228 4.8 12.9 0.00 0.00 0.00 65 1013.6
20260505082048 11 220 4.8 12.9 0.00 0.00 0.00 66 1013.7
20260505081608 11 234 4.8 14.5 0.00 0.00 0.00 66 1013.7
20260505081052 11 214 8.0 16.1 0.00 0.00 0.00 66 1013.7
20260505080552 11 250 6.4 16.1 0.00 0.00 0.00 67 1013.6
20260505080058 11 213 0.0 14.5 0.00 0.00 0.00 67 1013.5
20260505075551 11 213 6.4 16.1 0.00 0.00 0.00 68 1013.4
20260505075051 11 231 6.4 16.1 0.00 0.00 0.00 68 1013.5
20260505074552 11 211 4.8 16.1 0.00 0.00 0.00 69 1013.5
20260505074054 11 272 4.8 16.1 0.00 0.00 0.00 69 1013.4
20260505073552 11 232 6.4 16.1 0.00 0.00 0.00 69 1013.3
20260505073059 11 210 6.4 19.3 0.00 0.00 0.00 69 1013.4
20260505072551 11 185 6.4 19.3 0.00 0.00 0.00 69 1013.2
20260505072052 11 245 1.6 16.1 0.00 0.00 0.00 69 1013.1
20260505071557 11 213 6.4 16.1 0.00 0.00 0.00 69 1013.0
20260505071053 11 195 6.4 14.5 0.00 0.00 0.00 69 1013.0
20260505070552 11 232 6.4 12.9 0.00 0.00 0.00 70 1013.0
20260505070057 11 231 3.2 16.1 0.00 0.00 0.00 70 1012.9
20260505065552 12 235 6.4 17.7 0.00 0.00 0.00 70 1012.8
20260505065051 12 215 6.4 17.7 0.00 0.00 0.00 70 1012.8
20260505064554 12 217 9.7 17.7 0.00 0.00 0.00 70 1012.7
20260505064049 12 223 4.8 14.5 0.00 0.00 0.00 70 1012.8
20260505063552 12 247 4.8 16.1 0.00 0.00 0.00 71 1012.8
20260505063100 12 212 4.8 16.1 0.00 0.00 0.00 71 1012.7
20260505062551 12 218 6.4 14.5 0.00 0.00 0.00 71 1012.7
20260505062049 12 225 1.6 16.1 0.00 0.00 0.00 71 1012.7
20260505061602 12 198 6.4 16.1 0.00 0.00 0.00 72 1012.7
20260505061050 12 219 6.4 14.5 0.00 0.00 0.00 72 1012.7
20260505060552 12 215 3.2 11.3 0.00 0.00 0.00 72 1012.5